Regional Weather Roundup
Issued by NWS

Home | Current Version | Previous Version | Text Only | Print | Product List | Glossary Off
Versions: 1 2 3 4 5 6 7 8 9 10 11 12 13 14 15 16 17 18 19 20 21 22 23 24 25 26 27 28 29 30 31 32 33 34 35 36 37 38 39 40 41 42 43 44 45 46 47 48 49 50

000
ASUS45 KBOI 230010
RWRID

IDAHO REGIONAL WEATHER ROUNDUP
NATIONAL WEATHER SERVICE BOISE ID
600 PM MDT FRI SEP 22 2017

NOTE: "FAIR" INDICATES FEW OR NO CLOUDS BELOW 12000 FEET
WITH NO SIGNIFICANT WEATHER AND/OR OBSTRUCTIONS TO VISIBILITY

IDZ012-014-230100-
SOUTHWEST IDAHO


CITY           SKY/WX    TMP DP  RH WIND       PRES   REMARKS
BOISE          CLOUDY    50  40  68 CALM      29.98R
CALDWELL       PTSUNNY   56  39  53 CALM      29.97S
MOUNTAIN HOME  MOSUNNY   54  37  54 NW10      29.96S
$$

IDZ016-017-230100-
SOUTHCENTRAL IDAHO


CITY           SKY/WX    TMP DP  RH WIND       PRES   REMARKS
BURLEY         PTSUNNY   50  34  54 NW6       29.94R
JEROME         MOSUNNY   51  36  56 W8        29.96R
TWIN FALLS     MOSUNNY   50  35  56 NW9       29.95S
$$

IDZ019>023-230100-
SOUTHEAST IDAHO


CITY           SKY/WX    TMP DP  RH WIND       PRES   REMARKS
IDAHO FALLS    CLOUDY    46  35  65 SW8       29.95S
POCATELLO      CLOUDY    46  37  71 S8        29.95F
REXBURG        CLOUDY    44  36  73 S7        29.95R
$$

IDZ006-010-011-018-031-032-230100-
CENTRAL IDAHO MOUNTAINS


CITY           SKY/WX    TMP DP  RH WIND       PRES   REMARKS
MCCALL         CLOUDY    44  34  67 CALM      29.93R
HAILEY         PTSUNNY   46  34  61 CALM      29.94R
STANLEY          N/A     45  30  55 N6        29.93R
SALMON         CLOUDY    50  33  52 W3        29.94R
CHALLIS        PTSUNNY   47  33  58 NW3       29.90S
$$

IDZ002-004-006-007-026-230100-
NORTHERN IDAHO


CITY           SKY/WX    TMP DP  RH WIND       PRES   REMARKS
LEWISTON       PTSUNNY   61  40  45 CALM      29.97R
LOWELL           N/A     54  42  64 S6        29.99R
COEUR D`ALENE  MOSUNNY   55  35  47 SE10      29.99R
MULLAN PASS    CLOUDY    35  33  92 CALM      30.00R
$$



USA.gov is the U.S. government's official web portal to all federal, state and local government web resources and services.